Weather in Malyshevo

Russia / Vladimir Oblast     55°43′27″N   41°32′13″E
temp.,
°C
wind,
m/s
gust,
m/s
humid.,
%
clouds,
%
prec.,
mm/h
press.,
hPa
HPBL,
m
25 february, thu
thu2500:00−17s4995100 0.4 1030409
03:00−16ssw4996100 0.9 1027416
06:00−15s51195100 2.0 1023440
09:00−12ssw51394100 3.6 1018435
12:00−9ssw51095100 3.5 1014359
15:00−6ssw2596100 4.8 1012154
18:000w2999100 0.4 1011290
21:00+1wnw4999100 0.6 1012333
26 february, fri
fri2600:00+1w3898100 0.1 1011330
03:000w3796100 0.1 1012256
06:00+1sw3699100 0.3 1009182
09:00+1wsw3899100 0.9 1008217
12:00+2wsw512100100 1.0 1004445
15:00+3wsw514100100 1.4 1001583
18:00+2w61598100 1.4 999751
21:00+2w61492100 1.6 9991018
27 february, sat
sat2700:00+1w7139396 0.1 998989
03:00+1wnw6139798 0.6 9981024
06:00+1wnw61294100 0.5 9971043
09:000wnw61397100 1.1 998923
12:00−3nw51093100 1.5 999709
15:00−6nnw5987100 1.7 1002786
18:00−9nnw4991100 0.1 1004639
21:00−10nnw4993100 0.2 1008535
28 february, sun
sun2800:00−11nnw3895100 0.1 1009319
03:00−13nnw389698 0.1 1012286
06:00−14nnw379568 0.0 1013266
09:00−13nnw379156 0.0 1014343
12:00−9nnw478879 0.0 1016532
15:00−7nnw478790 0.1 1017660
18:00−9nnw3894100 0.1 1018397
21:00−10n3996100 0.1 1021366
1 march, mon
mon100:00−12nnw239655 0.0 102384
03:00−13nnw239667 0.0 102460
06:00−13nw229785 0.0 102524
09:00−10nw239684 0.1 1026138
12:00−5wnw248973 0.0 1026372
15:00−3w368976 0.0 1025544
18:00−3wsw4991100 0.0 1024510
21:00−2wsw51194100 0.1 1021547